TimeAEST,TemperatureF,Dew PointF,Humidity,Sea Level PressureIn,VisibilityMPH,Wind Direction,Wind SpeedMPH,Gust SpeedMPH,PrecipitationIn,Events,Conditions,WindDirDegrees,DateUTC
12:00 AM,74,69,81,29.93,,SE,10.4,,,,,130,2013-03-29 14:00:00
12:00 AM,73.4,69.8,88,29.92,6.2,SE,10.4,-,N/A,,Scattered Clouds,130,2013-03-29 14:00:00
12:30 AM,73.4,69.8,88,29.92,6.2,SE,10.4,-,N/A,,Partly Cloudy,140,2013-03-29 14:30:00
1:00 AM,76,68,70,29.91,,South,5.8,,,,,190,2013-03-29 15:00:00
1:00 AM,75.2,68.0,78,29.89,6.2,South,5.8,-,N/A,,Partly Cloudy,190,2013-03-29 15:00:00
1:30 AM,75.2,68.0,78,29.89,6.2,South,8.1,-,N/A,,Partly Cloudy,180,2013-03-29 15:30:00
2:00 AM,73.4,69.8,88,29.89,6.2,SE,13.8,-,N/A,,Partly Cloudy,140,2013-03-29 16:00:00
2:30 AM,73.4,69.8,88,29.86,6.2,SSE,10.4,-,N/A,,Scattered Clouds,150,2013-03-29 16:30:00
3:00 AM,73,69,84,29.88,,SSE,11.5,,,,,150,2013-03-29 17:00:00
3:00 AM,73.4,69.8,88,29.86,6.2,SSE,11.5,-,N/A,,Scattered Clouds,150,2013-03-29 17:00:00
3:30 AM,73.4,69.8,88,29.86,6.2,South,11.5,-,N/A,,Mostly Cloudy,170,2013-03-29 17:30:00
4:00 AM,75,67,69,29.87,,South,15.0,,,,,180,2013-03-29 18:00:00
4:00 AM,75.2,66.2,73,29.86,6.2,South,15.0,-,N/A,,Mostly Cloudy,180,2013-03-29 18:00:00
4:30 AM,75.2,66.2,73,29.86,6.2,South,10.4,-,N/A,,Mostly Cloudy,170,2013-03-29 18:30:00
5:00 AM,73.4,68.0,83,29.86,6.2,SSE,9.2,-,N/A,,Mostly Cloudy,150,2013-03-29 19:00:00
5:30 AM,71.6,68.0,88,29.86,6.2,SSE,11.5,-,N/A,,Scattered Clouds,150,2013-03-29 19:30:00
6:00 AM,72,68,85,29.88,19,SE,11.5,,,,Partly Cloudy,140,2013-03-29 20:00:00
6:00 AM,71.6,68.0,88,29.86,6.2,SE,11.5,-,N/A,,Partly Cloudy,140,2013-03-29 20:00:00
6:30 AM,71.6,68.0,88,29.89,6.2,SE,11.5,-,N/A,,Partly Cloudy,130,2013-03-29 20:30:00
7:00 AM,72,69,85,29.90,,SSE,10.4,,,,,150,2013-03-29 21:00:00
7:00 AM,71.6,68.0,88,29.89,6.2,SSE,10.4,-,N/A,,Partly Cloudy,150,2013-03-29 21:00:00
7:30 AM,75.2,69.8,83,29.89,6.2,SE,9.2,-,N/A,,Partly Cloudy,130,2013-03-29 21:30:00
8:00 AM,78.8,68.0,69,29.89,6.2,SSE,6.9,-,N/A,,Partly Cloudy,160,2013-03-29 22:00:00
8:30 AM,78.8,68.0,69,29.92,6.2,SE,10.4,-,N/A,,Scattered Clouds,130,2013-03-29 22:30:00
9:00 AM,79,67,58,29.93,9,South,8.1,,,,Mostly Cloudy,170,2013-03-29 23:00:00
9:00 AM,78.8,66.2,65,29.92,6.2,South,8.1,-,N/A,,Scattered Clouds,170,2013-03-29 23:00:00
9:13 AM,75.2,71.6,89,29.95,3.7,ESE,15.0,-,N/A,Rain,Light Rain Showers,120,2013-03-29 23:13:00
9:30 AM,73.4,71.6,94,29.95,5.0,SSE,9.2,-,N/A,Rain,Light Rain Showers,150,2013-03-29 23:30:00
10:00 AM,76,70,75,29.95,,SW,5.8,,,,,220,2013-03-30 00:00:00
10:00 AM,75.2,69.8,83,29.95,6.2,SW,5.8,-,N/A,,Mostly Cloudy,220,2013-03-30 00:00:00
10:30 AM,78.8,69.8,74,29.92,6.2,East,4.6,-,N/A,,Mostly Cloudy,80,2013-03-30 00:30:00
11:00 AM,80.6,69.8,70,29.92,6.2,South,6.9,-,N/A,,Mostly Cloudy,180,2013-03-30 01:00:00
11:30 AM,82.4,68.0,62,29.92,6.2,South,8.1,-,N/A,,Scattered Clouds,180,2013-03-30 01:30:00
12:00 PM,83,69,53,29.90,19,SSW,6.9,,,,Partly Cloudy,200,2013-03-30 02:00:00
12:00 PM,82.4,68.0,62,29.89,6.2,SSW,6.9,-,N/A,,Scattered Clouds,200,2013-03-30 02:00:00
12:30 PM,84.2,69.8,62,29.86,6.2,South,5.8,-,N/A,,Scattered Clouds,190,2013-03-30 02:30:00
1:00 PM,86,71,52,29.88,,East,8.1,,,,,100,2013-03-30 03:00:00
1:00 PM,86.0,71.6,62,29.86,6.2,East,8.1,-,N/A,,Partly Cloudy,100,2013-03-30 03:00:00
1:30 PM,86.0,68.0,55,29.86,6.2,SE,6.9,-,N/A,,Partly Cloudy,130,2013-03-30 03:30:00
2:00 PM,84.2,68.0,58,29.83,6.2,NE,10.4,-,N/A,,Partly Cloudy,50,2013-03-30 04:00:00
2:30 PM,86.0,66.2,51,29.83,6.2,East,9.2,-,N/A,,Partly Cloudy,100,2013-03-30 04:30:00
3:00 PM,85,67,46,29.83,19,East,10.4,,,,Partly Cloudy,80,2013-03-30 05:00:00
3:00 PM,86.0,68.0,55,29.83,6.2,East,10.4,-,N/A,,Partly Cloudy,80,2013-03-30 05:00:00
3:30 PM,86.0,68.0,55,29.80,6.2,East,11.5,-,N/A,,Scattered Clouds,100,2013-03-30 05:30:00
4:00 PM,85,68,47,29.84,,ESE,11.5,,,,,110,2013-03-30 06:00:00
4:00 PM,84.2,68.0,58,29.83,6.2,ESE,11.5,-,N/A,,Scattered Clouds,110,2013-03-30 06:00:00
4:30 PM,82.4,68.0,62,29.83,6.2,SE,17.3,-,N/A,,Mostly Cloudy,140,2013-03-30 06:30:00
5:00 PM,80.6,68.0,65,29.83,6.2,SE,16.1,-,N/A,,Mostly Cloudy,140,2013-03-30 07:00:00
5:30 PM,80.6,68.0,65,29.83,6.2,SSE,13.8,-,N/A,,Mostly Cloudy,150,2013-03-30 07:30:00
6:00 PM,79,67,60,29.86,,South,8.1,,,,Overcast,170,2013-03-30 08:00:00
6:00 PM,78.8,68.0,69,29.86,6.2,South,8.1,-,N/A,,Mostly Cloudy,170,2013-03-30 08:00:00
6:30 PM,78.8,68.0,69,29.86,6.2,South,8.1,-,N/A,,Mostly Cloudy,170,2013-03-30 08:30:00
7:00 PM,78,69,68,29.88,,South,9.2,,,,,170,2013-03-30 09:00:00
7:00 PM,78.8,69.8,74,29.86,6.2,South,9.2,-,N/A,,Mostly Cloudy,170,2013-03-30 09:00:00
7:30 PM,78.8,69.8,74,29.89,6.2,SSE,9.2,-,N/A,,Mostly Cloudy,160,2013-03-30 09:30:00
8:00 PM,78.8,69.8,74,29.89,6.2,South,6.9,-,N/A,,Mostly Cloudy,170,2013-03-30 10:00:00
8:30 PM,77.0,69.8,78,29.92,6.2,South,8.1,-,N/A,,Scattered Clouds,170,2013-03-30 10:30:00
9:00 PM,77,69,70,29.93,,South,8.1,,,,,180,2013-03-30 11:00:00
9:00 PM,77.0,69.8,78,29.92,6.2,South,8.1,-,N/A,,Partly Cloudy,180,2013-03-30 11:00:00
9:30 PM,77.0,69.8,78,29.92,3.7,ESE,11.5,-,N/A,Rain,Light Rain Showers,120,2013-03-30 11:30:00
10:00 PM,74,71,88,29.94,,South,5.8,,,,,180,2013-03-30 12:00:00
10:00 PM,73.4,71.6,94,29.92,6.2,South,5.8,-,N/A,,Mostly Cloudy,180,2013-03-30 12:00:00
10:30 PM,75.2,73.4,94,29.92,3.7,East,8.1,-,N/A,Rain,Light Rain Showers,100,2013-03-30 12:30:00
11:00 PM,73.4,71.6,94,29.92,6.2,South,8.1,-,N/A,,Overcast,180,2013-03-30 13:00:00
11:30 PM,75.2,69.8,83,29.92,6.2,South,9.2,-,N/A,,Scattered Clouds,190,2013-03-30 13:30:00